Charlotte, NC

9:08 PM EDT on August 27, 2016 (GMT -0400)
Charlotte-Douglas International

Weather History for KCLT - May, 2014

Change the Weather History Date:

Tuesday, May 6, 2014

  Actual Average Record
Temperature  
Mean Temperature 70 °F 65 °F  
Max Temperature 86 °F 77 °F 93 °F (1950)
Min Temperature 53 °F 53 °F 39 °F (1891)
Degree Days  
Heating Degree Days 0 3  
Month to date heating degree days 11 19  
Since 1 July heating degree days 3373 3351  
Cooling Degree Days 5 2  
Month to date cooling degree days 14 12  
Year to date cooling degree days 53 49  
Growing Degree Days 20 (Base 50)    
Moisture  
Dew Point 52 °F    
Average Humidity 60    
Maximum Humidity 89    
Minimum Humidity 31    
Precipitation  
Precipitation 0.00 in 0.09 in 1.60 in (2013)
Month to date precipitation 0.00 0.58  
Year to date precipitation 18.74 14.36  
Snow  
Snow 0.00 in 0.00 in 0.00 in ()
Month to date snowfall 0.0 0.0  
Since 1 July snowfall 9.3 4.3  
Snow Depth 0.00 in    
Sea Level Pressure  
Sea Level Pressure 29.91 in    
Wind  
Wind Speed 4 mph (SW)    
Max Wind Speed 13 mph    
Max Gust Speed 16 mph    
Visibility 10 miles    
Events      
T = Trace of Precipitation, MM = Missing Value Source: NWS Daily Summary

Daily Weather History Graph

Daily Weather History Graph

Search for Another Location

Airport or City:

Trip Planner

Search our weather history database for the weather conditions in past years. The results will help you decide how hot, cold, wet, or windy it might be!

Date:

Astronomy

May. 06, 2014 Rise Set
Actual Time 6:27 AM EDT 8:13 PM EDT
Civil Twilight 6:00 AM EDT 8:41 PM EDT
Nautical Twilight 5:26 AM EDT 9:14 PM EDT
Astronomical Twilight 4:51 AM EDT 9:50 PM EDT
Moon 12:39 PM EDT (5/6) 1:34 AM EDT (5/6)
Length of Visible Light 14h 41m
Length of Day
13h 46m
Waxing Crescent, 46% of the Moon is Illuminated
May 6
Waxing Crescent
May 6
First Quarter
May 14
Full
May 21
Last Quarter
May 28
New

Hourly Weather History & Observations

Time (EDT) Temp. Heat Index Dew Point Humidity Pressure Visibility Wind Dir Wind Speed Gust Speed Precip Events Conditions
12:52 AM 70.0 °F - 48.0 °F 46% 29.85 in 10.0 mi West 5.8 mph - N/A   Clear
1:52 AM 66.2 °F - 48.2 °F 52% 29.87 in 10.0 mi NW 3.5 mph - N/A   Clear
2:52 AM 60.1 °F - 54.0 °F 80% 29.85 in 10.0 mi North 5.8 mph - N/A   Clear
7:52 AM 61.0 °F - 51.1 °F 70% 29.93 in 10.0 mi Calm Calm - N/A   Partly Cloudy
8:52 AM 64.0 °F - 53.1 °F 67% 29.95 in 10.0 mi Calm Calm - N/A   Clear
10:52 AM 75.0 °F - 57.0 °F 53% 29.95 in 10.0 mi South 4.6 mph - N/A   Mostly Cloudy
11:52 AM 80.1 °F 80.0 °F 54.0 °F 40% 29.94 in 10.0 mi West 3.5 mph - N/A   Scattered Clouds
12:52 PM 82.0 °F 81.2 °F 53.1 °F 37% 29.94 in 10.0 mi WNW 3.5 mph - N/A   Scattered Clouds
1:52 PM 82.9 °F - 52.0 °F 34% 29.92 in 10.0 mi Variable 4.6 mph - N/A   Partly Cloudy
2:52 PM 84.9 °F - 52.0 °F 32% 29.91 in 10.0 mi SW 10.4 mph - N/A   Clear
3:52 PM 84.9 °F - 52.0 °F 32% 29.89 in 10.0 mi Variable 4.6 mph - N/A   Partly Cloudy
4:52 PM 84.9 °F 83.2 °F 53.1 °F 33% 29.88 in 10.0 mi SSW 10.4 mph - N/A   Partly Cloudy
5:52 PM 84.9 °F - 50.0 °F 30% 29.88 in 10.0 mi SSW 11.5 mph - N/A   Partly Cloudy
6:52 PM 82.9 °F - 52.0 °F 34% 29.88 in 10.0 mi SSW 5.8 mph - N/A   Partly Cloudy
7:52 PM 79.0 °F - 53.1 °F 40% 29.89 in 10.0 mi South 4.6 mph - N/A   Partly Cloudy
8:52 PM 73.9 °F - 53.1 °F 48% 29.91 in 10.0 mi SSW 5.8 mph - N/A   Partly Cloudy
9:52 PM 73.0 °F - 51.1 °F 46% 29.93 in 10.0 mi SSW 4.6 mph - N/A   Clear
10:52 PM 72.0 °F - 51.1 °F 48% 29.94 in 10.0 mi SSW 3.5 mph - N/A   Clear
11:52 PM 64.9 °F - 52.0 °F 63% 29.95 in 10.0 mi Calm Calm - N/A   Clear